| time (UTC) | temp C | wind direction | speed KPH | gust KPH | rain 1hr cm | rain 24hr cm | rain mn cm | humidity % | barometer mb |
| 20260906114700 | 21 | 43 | 0.0 | 0.0 | 0.00 | 0.00 | 0.00 | 99 | 1010.9 |
| 20260906114156 | 21 | 65 | 0.0 | 0.0 | 0.00 | 0.00 | 0.00 | 99 | 1010.6 |
| 20260906113656 | 21 | 65 | 0.0 | 0.0 | 0.00 | 0.00 | 0.00 | 99 | 1010.6 |
| 20260906113155 | 21 | 65 | 0.0 | 0.0 | 0.00 | 0.00 | 0.00 | 99 | 1010.6 |
| 20260906112654 | 21 | 65 | 0.0 | 0.0 | 0.00 | 0.00 | 0.00 | 99 | 1010.6 |
| 20260906112152 | 21 | 65 | 0.0 | 0.0 | 0.00 | 0.00 | 0.00 | 99 | 1010.6 |
| 20260906111651 | 21 | 65 | 0.0 | 0.0 | 0.00 | 0.00 | 0.00 | 99 | 1010.6 |
| 20260906111146 | 21 | 65 | 0.0 | 0.0 | 0.00 | 0.00 | 0.00 | 99 | 1010.3 |
| 20260906110641 | 21 | 65 | 0.0 | 0.0 | 0.00 | 0.00 | 0.00 | 99 | 1010.3 |
| 20260906110136 | 21 | 65 | 0.0 | 0.0 | 0.00 | 0.00 | 0.00 | 99 | 1010.3 |
| 20260906105630 | 21 | 8 | 0.0 | 0.0 | 0.00 | 0.00 | 0.00 | 99 | 1010.3 |
| 20260906105127 | 21 | 8 | 0.0 | 0.0 | 0.00 | 0.00 | 0.00 | 99 | 1010.3 |
| 20260906104625 | 21 | 7 | 0.0 | 0.0 | 0.00 | 0.00 | 0.00 | 99 | 1010.3 |
| 20260906104119 | 21 | 7 | 0.0 | 0.0 | 0.00 | 0.00 | 0.00 | 99 | 1010.3 |
| 20260906103618 | 21 | 8 | 0.0 | 0.0 | 0.00 | 0.00 | 0.00 | 99 | 1010.3 |
| 20260906103113 | 21 | 7 | 0.0 | 0.0 | 0.00 | 0.00 | 0.00 | 99 | 1010.3 |
| 20260906102608 | 21 | 8 | 0.0 | 0.0 | 0.00 | 0.00 | 0.00 | 99 | 1009.6 |
| 20260906102102 | 21 | 192 | 0.0 | 0.0 | 0.00 | 0.00 | 0.00 | 99 | 1009.6 |
| 20260906101557 | 21 | 192 | 0.0 | 0.0 | 0.00 | 0.00 | 0.00 | 99 | 1009.9 |
| 20260906101051 | 21 | 192 | 0.0 | 0.0 | 0.00 | 0.00 | 0.00 | 99 | 1009.9 |
| 20260906100547 | 21 | 192 | 0.0 | 0.0 | 0.00 | 0.00 | 0.00 | 99 | 1009.9 |
| 20260906100048 | 21 | 192 | 0.0 | 0.0 | 0.00 | 0.00 | 0.00 | 99 | 1009.6 |
| 20260906095547 | 22 | 192 | 0.0 | 0.0 | 0.00 | 0.00 | 0.00 | 99 | 1009.6 |
| 20260906095043 | 22 | 192 | 0.0 | 0.0 | 0.00 | 0.00 | 0.00 | 99 | 1009.6 |
| 20260906094542 | 22 | 192 | 0.0 | 0.0 | 0.00 | 0.00 | 0.00 | 99 | 1009.6 |
| 20260906094038 | 22 | 192 | 0.0 | 0.0 | 0.00 | 0.00 | 0.00 | 99 | 1009.6 |
| 20260906093533 | 22 | 192 | 0.0 | 0.0 | 0.00 | 0.00 | 0.00 | 99 | 1009.6 |
| 20260906093028 | 22 | 192 | 0.0 | 0.0 | 0.00 | 0.00 | 0.00 | 99 | 1009.6 |
| 20260906092523 | 22 | 192 | 0.0 | 0.0 | 0.00 | 0.00 | 0.00 | 99 | 1009.6 |
| 20260906092018 | 22 | 192 | 0.0 | 0.0 | 0.00 | 0.00 | 0.00 | 99 | 1009.6 |
| 20260906091514 | 22 | 168 | 0.0 | 0.0 | 0.00 | 0.00 | 0.00 | 99 | 1009.3 |
| 20260906091011 | 22 | 148 | 0.0 | 0.0 | 0.00 | 0.00 | 0.00 | 99 | 1009.3 |
| 20260906090510 | 22 | 308 | 0.0 | 0.0 | 0.00 | 0.00 | 0.00 | 99 | 1009.3 |
| 20260906090005 | 22 | 308 | 0.0 | 0.0 | 0.00 | 0.00 | 0.00 | 99 | 1009.6 |
| 20260906085504 | 22 | 317 | 0.0 | 0.0 | 0.00 | 0.00 | 0.00 | 99 | 1009.6 |
| 20260906085004 | 22 | 335 | 1.6 | 1.6 | 0.00 | 0.00 | 0.00 | 99 | 1009.6 |
| 20260906084458 | 22 | 16 | 0.0 | 0.0 | 0.00 | 0.00 | 0.00 | 99 | 1009.3 |
| 20260906083957 | 22 | 320 | 0.0 | 0.0 | 0.00 | 0.00 | 0.00 | 99 | 1009.3 |
| 20260906083453 | 22 | 348 | 0.0 | 0.0 | 0.00 | 0.00 | 0.00 | 99 | 1009.3 |
| 20260906082952 | 22 | 354 | 0.0 | 0.0 | 0.00 | 0.00 | 0.00 | 99 | 1009.6 |
| 20260906082448 | 22 | 354 | 0.0 | 0.0 | 0.00 | 0.00 | 0.00 | 99 | 1009.6 |
| 20260906081944 | 22 | 24 | 0.0 | 0.0 | 0.00 | 0.00 | 0.00 | 99 | 1009.6 |
| 20260906081444 | 22 | 24 | 0.0 | 0.0 | 0.00 | 0.00 | 0.00 | 99 | 1009.6 |
| 20260906080940 | 22 | 54 | 0.0 | 0.0 | 0.00 | 0.00 | 0.00 | 99 | 1009.6 |
| 20260906080436 | 22 | 36 | 0.0 | 0.0 | 0.00 | 0.00 | 0.00 | 99 | 1009.6 |
| 20260906075931 | 22 | 319 | 0.0 | 0.0 | 0.00 | 0.00 | 0.00 | 99 | 1009.6 |
| 20260906075426 | 22 | 66 | 0.0 | 0.0 | 0.00 | 0.00 | 0.00 | 99 | 1009.6 |
| 20260906074920 | 22 | 66 | 0.0 | 0.0 | 0.00 | 0.00 | 0.00 | 99 | 1009.6 |
| 20260906074415 | 22 | 66 | 0.0 | 0.0 | 0.00 | 0.00 | 0.00 | 99 | 1009.6 |
| 20260906073914 | 22 | 66 | 0.0 | 0.0 | 0.00 | 0.00 | 0.00 | 99 | 1009.6 |
| 20260906073409 | 22 | 66 | 0.0 | 0.0 | 0.00 | 0.00 | 0.00 | 99 | 1009.6 |
| 20260906072905 | 23 | 66 | 0.0 | 0.0 | 0.00 | 0.00 | 0.00 | 99 | 1010.3 |
| 20260906072400 | 23 | 114 | 0.0 | 0.0 | 0.00 | 0.00 | 0.00 | 99 | 1010.3 |
| 20260906071856 | 23 | 114 | 0.0 | 0.0 | 0.00 | 0.00 | 0.00 | 98 | 1010.3 |
| 20260906071352 | 23 | 108 | 0.0 | 0.0 | 0.00 | 0.00 | 0.00 | 98 | 1010.3 |
| 20260906070847 | 23 | 108 | 0.0 | 0.0 | 0.00 | 0.00 | 0.00 | 98 | 1010.3 |
| 20260906070343 | 23 | 168 | 0.0 | 0.0 | 0.00 | 0.00 | 0.00 | 98 | 1010.3 |
| 20260906065838 | 23 | 168 | 0.0 | 0.0 | 0.00 | 0.00 | 0.00 | 98 | 1010.6 |
| 20260906065333 | 23 | 168 | 0.0 | 0.0 | 0.00 | 0.00 | 0.00 | 98 | 1010.6 |
| 20260906064828 | 23 | 156 | 0.0 | 0.0 | 0.00 | 0.00 | 0.00 | 98 | 1010.6 |
| 20260906064324 | 23 | 48 | 0.0 | 0.0 | 0.00 | 0.00 | 0.00 | 97 | 1010.3 |
| 20260906063819 | 23 | 48 | 0.0 | 0.0 | 0.00 | 0.00 | 0.00 | 97 | 1010.3 |
| 20260906063314 | 23 | 48 | 0.0 | 0.0 | 0.00 | 0.00 | 0.00 | 97 | 1010.3 |
| 20260906062809 | 23 | 48 | 0.0 | 0.0 | 0.00 | 0.00 | 0.00 | 97 | 1010.3 |
| 20260906062308 | 23 | 48 | 0.0 | 0.0 | 0.00 | 0.00 | 0.00 | 97 | 1010.3 |
| 20260906061804 | 23 | 48 | 0.0 | 0.0 | 0.00 | 0.00 | 0.00 | 96 | 1010.3 |
| 20260906061301 | 23 | 19 | 0.0 | 0.0 | 0.00 | 0.00 | 0.00 | 96 | 1010.3 |
| 20260906060755 | 23 | 27 | 0.0 | 0.0 | 0.00 | 0.00 | 0.00 | 96 | 1010.3 |
| 20260906060253 | 23 | 30 | 0.0 | 0.0 | 0.00 | 0.00 | 0.00 | 96 | 1010.3 |
| 20260906055748 | 23 | 35 | 0.0 | 0.0 | 0.00 | 0.00 | 0.00 | 95 | 1010.3 |
| 20260906055243 | 24 | 136 | 0.0 | 0.0 | 0.00 | 0.00 | 0.00 | 95 | 1010.3 |
| 20260906054739 | 24 | 53 | 0.0 | 0.0 | 0.00 | 0.00 | 0.00 | 95 | 1010.3 |
| 20260906054234 | 24 | 53 | 0.0 | 0.0 | 0.00 | 0.00 | 0.00 | 95 | 1010.3 |
| 20260906053730 | 24 | 53 | 0.0 | 0.0 | 0.00 | 0.00 | 0.00 | 94 | 1010.3 |
| 20260906053226 | 24 | 65 | 0.0 | 0.0 | 0.00 | 0.00 | 0.00 | 94 | 1010.3 |
| 20260906052721 | 24 | 195 | 0.0 | 0.0 | 0.00 | 0.00 | 0.00 | 94 | 1010.3 |
| 20260906052217 | 24 | 20 | 0.0 | 0.0 | 0.00 | 0.00 | 0.00 | 94 | 1010.3 |
| 20260906051714 | 24 | 210 | 0.0 | 0.0 | 0.00 | 0.00 | 0.00 | 94 | 1010.3 |
| 20260906051213 | 24 | 210 | 0.0 | 0.0 | 0.00 | 0.00 | 0.00 | 94 | 1010.3 |
| 20260906050709 | 25 | 24 | 0.0 | 0.0 | 0.00 | 0.00 | 0.00 | 93 | 1010.3 |
| 20260906050204 | 25 | 30 | 0.0 | 0.0 | 0.00 | 0.00 | 0.00 | 93 | 1010.3 |
| 20260906045702 | 25 | 324 | 0.0 | 0.0 | 0.00 | 0.00 | 0.00 | 93 | 1010.3 |
| 20260906045157 | 25 | 26 | 0.0 | 0.0 | 0.00 | 0.00 | 0.00 | 93 | 1010.3 |
| 20260906044653 | 25 | 29 | 0.0 | 0.0 | 0.00 | 0.00 | 0.00 | 93 | 1010.3 |
| 20260906044148 | 25 | 158 | 0.0 | 0.0 | 0.00 | 0.00 | 0.00 | 93 | 1010.6 |
| 20260906043644 | 25 | 180 | 0.0 | 0.0 | 0.00 | 0.00 | 0.00 | 92 | 1010.6 |
| 20260906043140 | 25 | 170 | 0.0 | 0.0 | 0.00 | 0.00 | 0.00 | 92 | 1010.6 |
| 20260906042639 | 25 | 159 | 0.0 | 0.0 | 0.00 | 0.00 | 0.00 | 91 | 1010.6 |
| 20260906042133 | 25 | 120 | 0.0 | 0.0 | 0.00 | 0.00 | 0.00 | 91 | 1010.6 |
| 20260906041629 | 25 | 30 | 0.0 | 0.0 | 0.00 | 0.00 | 0.00 | 91 | 1010.6 |
| 20260906041124 | 25 | 74 | 0.0 | 0.0 | 0.00 | 0.00 | 0.00 | 91 | 1010.9 |
| 20260906040620 | 25 | 220 | 0.0 | 0.0 | 0.00 | 0.00 | 0.00 | 91 | 1010.9 |
| 20260906040115 | 25 | 324 | 0.0 | 0.0 | 0.00 | 0.00 | 0.00 | 91 | 1011.3 |
| 20260906035610 | 25 | 324 | 0.0 | 0.0 | 0.00 | 0.00 | 0.00 | 91 | 1011.3 |
| 20260906035106 | 25 | 180 | 0.0 | 0.0 | 0.00 | 0.00 | 0.00 | 91 | 1011.3 |
| 20260906034606 | 26 | 180 | 0.0 | 0.0 | 0.00 | 0.00 | 0.00 | 90 | 1011.3 |
| 20260906034100 | 26 | 154 | 0.0 | 0.0 | 0.00 | 0.00 | 0.00 | 89 | 1010.9 |
| 20260906033556 | 26 | 48 | 0.0 | 0.0 | 0.00 | 0.00 | 0.00 | 89 | 1010.9 |
| 20260906033051 | 26 | 48 | 0.0 | 0.0 | 0.00 | 0.00 | 0.00 | 88 | 1011.3 |
| 20260906032548 | 26 | 14 | 0.0 | 0.0 | 0.00 | 0.00 | 0.00 | 88 | 1011.3 |
| 20260906032042 | 26 | 160 | 0.0 | 0.0 | 0.00 | 0.00 | 0.00 | 88 | 1011.3 |
| 20260906031538 | 27 | 330 | 0.0 | 0.0 | 0.00 | 0.00 | 0.00 | 88 | 1010.9 |
| 20260906031033 | 27 | 66 | 0.0 | 0.0 | 0.00 | 0.00 | 0.00 | 88 | 1010.9 |
| 20260906030532 | 27 | 240 | 3.2 | 3.2 | 0.00 | 0.00 | 0.00 | 89 | 1010.9 |
| 20260906030032 | 27 | 358 | 4.8 | 4.8 | 0.00 | 0.00 | 0.00 | 90 | 1010.9 |
| 20260906025531 | 27 | 238 | 0.0 | 0.0 | 0.00 | 0.00 | 0.00 | 92 | 1010.9 |
| 20260906025024 | 27 | 334 | 0.0 | 0.0 | 0.00 | 0.00 | 0.00 | 94 | 1010.9 |
| 20260906024520 | 27 | 354 | 3.2 | 3.2 | 0.00 | 0.00 | 0.00 | 94 | 1010.6 |
| 20260906024020 | 27 | 216 | 0.0 | 0.0 | 0.00 | 0.00 | 0.00 | 94 | 1010.6 |
| 20260906023516 | 27 | 6 | 0.0 | 0.0 | 0.00 | 0.00 | 0.00 | 94 | 1010.6 |
| 20260906023011 | 27 | 348 | 0.0 | 0.0 | 0.00 | 0.00 | 0.00 | 95 | 1009.6 |
| 20260906022506 | 27 | 132 | 0.0 | 0.0 | 0.00 | 0.00 | 0.00 | 94 | 1009.6 |
| 20260906022001 | 27 | 200 | 0.0 | 0.0 | 0.00 | 0.00 | 0.00 | 94 | 1009.6 |
| 20260906021456 | 27 | 198 | 0.0 | 0.0 | 0.00 | 0.00 | 0.00 | 94 | 1009.6 |
| 20260906020951 | 27 | 96 | 0.0 | 0.0 | 0.00 | 0.00 | 0.00 | 94 | 1009.6 |
| 20260906020444 | 27 | 2 | 0.0 | 0.0 | 0.00 | 0.00 | 0.00 | 94 | 1009.6 |
| 20260906015938 | 27 | 348 | 0.0 | 0.0 | 0.00 | 0.00 | 0.00 | 93 | 1009.3 |
| 20260906015433 | 28 | 96 | 0.0 | 0.0 | 0.00 | 0.00 | 0.00 | 93 | 1009.3 |
| 20260906014933 | 28 | 96 | 0.0 | 0.0 | 0.00 | 0.00 | 0.00 | 93 | 1009.3 |
| 20260906014432 | 28 | 41 | 0.0 | 0.0 | 0.00 | 0.00 | 0.00 | 93 | 1009.6 |
| 20260906013929 | 28 | 18 | 0.0 | 0.0 | 0.00 | 0.00 | 0.00 | 92 | 1009.6 |
| 20260906013424 | 28 | 228 | 0.0 | 0.0 | 0.00 | 0.00 | 0.00 | 92 | 1009.6 |
| 20260906012920 | 28 | 90 | 0.0 | 0.0 | 0.00 | 0.00 | 0.00 | 92 | 1009.6 |
| 20260906012420 | 28 | 149 | 0.0 | 0.0 | 0.00 | 0.00 | 0.00 | 92 | 1009.6 |
| 20260906011919 | 28 | 359 | 0.0 | 0.0 | 0.00 | 0.00 | 0.00 | 91 | 1009.6 |
| 20260906011414 | 28 | 288 | 0.0 | 0.0 | 0.00 | 0.00 | 0.00 | 91 | 1009.9 |
| 20260906010909 | 28 | 162 | 3.2 | 3.2 | 0.00 | 0.00 | 0.00 | 91 | 1009.9 |
| 20260906010405 | 28 | 130 | 0.0 | 0.0 | 0.00 | 0.00 | 0.00 | 90 | 1009.9 |
| 20260906005901 | 28 | 227 | 3.2 | 3.2 | 0.00 | 0.00 | 0.00 | 90 | 1010.3 |
| 20260906005400 | 28 | 202 | 0.0 | 0.0 | 0.00 | 0.00 | 0.00 | 89 | 1010.3 |
| 20260906004859 | 28 | 174 | 0.0 | 0.0 | 0.00 | 0.00 | 0.00 | 89 | 1010.3 |
| 20260906004353 | 28 | 14 | 1.6 | 1.6 | 0.00 | 0.00 | 0.00 | 89 | 1009.9 |
| 20260906003849 | 28 | 6 | 0.0 | 0.0 | 0.00 | 0.00 | 0.00 | 89 | 1009.9 |
| 20260906003344 | 28 | 263 | 3.2 | 3.2 | 0.00 | 0.00 | 0.00 | 89 | 1009.9 |
| 20260906002840 | 28 | 114 | 3.2 | 3.2 | 0.00 | 0.00 | 0.00 | 88 | 1009.9 |
| 20260906002339 | 28 | 117 | 0.0 | 0.0 | 0.00 | 0.00 | 0.00 | 88 | 1009.9 |
| 20260906001834 | 28 | 210 | 3.2 | 3.2 | 0.00 | 0.00 | 0.00 | 88 | 1009.9 |
| 20260906001330 | 29 | 137 | 0.0 | 0.0 | 0.00 | 0.00 | 0.00 | 87 | 1010.3 |
| 20260906000825 | 29 | 170 | 3.2 | 3.2 | 0.00 | 0.00 | 0.00 | 87 | 1010.3 |
| 20260906000320 | 29 | 111 | 0.0 | 0.0 | 0.00 | 0.00 | 0.00 | 87 | 1010.3 |
| 20260905235820 | 29 | 246 | 1.6 | 1.6 | 0.00 | 0.00 | 0.00 | 86 | 1010.3 |
| 20260905235314 | 29 | 134 | 3.2 | 3.2 | 0.00 | 0.00 | 0.00 | 86 | 1010.3 |
| 20260905234810 | 29 | 128 | 0.0 | 0.0 | 0.00 | 0.00 | 0.00 | 86 | 1010.3 |
| 20260905234305 | 29 | 96 | 0.0 | 0.0 | 0.00 | 0.00 | 0.00 | 85 | 1010.3 |
| 20260905233759 | 30 | 150 | 0.0 | 0.0 | 0.00 | 0.00 | 0.00 | 85 | 1010.3 |
| 20260905233254 | 30 | 134 | 3.2 | 3.2 | 0.00 | 0.00 | 0.00 | 84 | 1010.3 |
| 20260905232753 | 30 | 156 | 0.0 | 0.0 | 0.00 | 0.00 | 0.00 | 84 | 1010.3 |
| 20260905232249 | 30 | 354 | 0.0 | 0.0 | 0.00 | 0.00 | 0.00 | 83 | 1010.3 |
| 20260905231745 | 30 | 145 | 1.6 | 1.6 | 0.00 | 0.00 | 0.00 | 83 | 1010.3 |
| 20260905231240 | 30 | 243 | 0.0 | 0.0 | 0.00 | 0.00 | 0.00 | 83 | 1009.9 |
| 20260905230736 | 30 | 166 | 1.6 | 1.6 | 0.00 | 0.00 | 0.00 | 82 | 1009.9 |
| 20260905230233 | 30 | 114 | 3.2 | 3.2 | 0.00 | 0.00 | 0.00 | 82 | 1009.9 |
| 20260905225728 | 30 | 149 | 0.0 | 0.0 | 0.00 | 0.00 | 0.00 | 82 | 1009.9 |
| 20260905225223 | 30 | 172 | 6.4 | 6.4 | 0.00 | 0.00 | 0.00 | 81 | 1009.9 |
| 20260905224722 | 31 | 141 | 4.8 | 4.8 | 0.00 | 0.00 | 0.00 | 81 | 1009.9 |
| 20260905224218 | 30 | 114 | 3.2 | 3.2 | 0.00 | 0.00 | 0.00 | 80 | 1010.3 |
| 20260905223714 | 30 | 251 | 6.4 | 6.4 | 0.00 | 0.00 | 0.00 | 79 | 1010.3 |
| 20260905223210 | 31 | 122 | 3.2 | 3.2 | 0.00 | 0.00 | 0.00 | 79 | 1010.3 |
| 20260905222706 | 31 | 186 | 3.2 | 3.2 | 0.00 | 0.00 | 0.00 | 79 | 1009.3 |
| 20260905222205 | 31 | 165 | 4.8 | 4.8 | 0.00 | 0.00 | 0.00 | 78 | 1009.3 |
| 20260905221701 | 31 | 127 | 3.2 | 3.2 | 0.00 | 0.00 | 0.00 | 77 | 1009.3 |
| 20260905221158 | 31 | 173 | 3.2 | 3.2 | 0.00 | 0.00 | 0.00 | 76 | 1009.6 |
| 20260905220653 | 31 | 246 | 3.2 | 3.2 | 0.00 | 0.00 | 0.00 | 75 | 1009.6 |
| 20260905220149 | 32 | 324 | 6.4 | 6.4 | 0.00 | 0.00 | 0.00 | 74 | 1009.6 |
| 20260905215649 | 32 | 138 | 6.4 | 8.0 | 0.00 | 0.00 | 0.00 | 74 | 1009.6 |
| 20260905215144 | 32 | 138 | 4.8 | 4.8 | 0.00 | 0.00 | 0.00 | 73 | 1009.6 |
| 20260905214640 | 32 | 114 | 6.4 | 6.4 | 0.00 | 0.00 | 0.00 | 73 | 1009.6 |
| 20260905214135 | 32 | 222 | 4.8 | 4.8 | 0.00 | 0.00 | 0.00 | 72 | 1009.3 |
| 20260905213630 | 33 | 141 | 3.2 | 3.2 | 0.00 | 0.00 | 0.00 | 72 | 1009.3 |
| 20260905213126 | 33 | 240 | 4.8 | 4.8 | 0.00 | 0.00 | 0.00 | 70 | 1009.3 |
| 20260905212621 | 33 | 192 | 4.8 | 4.8 | 0.00 | 0.00 | 0.00 | 70 | 1009.6 |
| 20260905212121 | 33 | 156 | 8.0 | 8.0 | 0.00 | 0.00 | 0.00 | 69 | 1009.6 |
| 20260905211615 | 33 | 251 | 6.4 | 6.4 | 0.00 | 0.00 | 0.00 | 68 | 1009.6 |
| 20260905211111 | 33 | 138 | 4.8 | 6.4 | 0.00 | 0.00 | 0.00 | 67 | 1009.3 |
| 20260905210607 | 33 | 288 | 6.4 | 6.4 | 0.00 | 0.00 | 0.00 | 66 | 1009.3 |
| 20260905205601 | 35 | 210 | 0.0 | 0.0 | 0.00 | 0.00 | 0.00 | 57 | 1009.3 |
| 20260905205101 | 35 | 306 | 6.4 | 8.0 | 0.00 | 0.00 | 0.00 | 54 | 1009.3 |
| 20260905204555 | 35 | 192 | 1.6 | 1.6 | 0.00 | 0.00 | 0.00 | 55 | 1009.3 |
| 20260905204050 | 36 | 114 | 1.6 | 1.6 | 0.00 | 0.00 | 0.00 | 53 | 1009.3 |
| 20260905203550 | 35 | 60 | 0.0 | 0.0 | 0.00 | 0.00 | 0.00 | 52 | 1009.3 |
| 20260905203046 | 35 | 162 | 3.2 | 3.2 | 0.00 | 0.00 | 0.00 | 53 | 1008.9 |
| 20260905202541 | 35 | 234 | 3.2 | 3.2 | 0.00 | 0.00 | 0.00 | 53 | 1008.9 |
| 20260905202036 | 35 | 48 | 3.2 | 3.2 | 0.00 | 0.00 | 0.00 | 54 | 1008.9 |
| 20260905201532 | 34 | 126 | 4.8 | 4.8 | 0.00 | 0.00 | 0.00 | 55 | 1009.3 |
| 20260905201031 | 35 | 312 | 6.4 | 6.4 | 0.00 | 0.00 | 0.00 | 54 | 1009.3 |
| 20260905200527 | 35 | 354 | 4.8 | 4.8 | 0.00 | 0.00 | 0.00 | 53 | 1009.3 |
| 20260905200026 | 35 | 222 | 3.2 | 3.2 | 0.00 | 0.00 | 0.00 | 53 | 1009.3 |
| 20260905195521 | 35 | 192 | 0.0 | 0.0 | 0.00 | 0.00 | 0.00 | 53 | 1009.3 |
| 20260905195016 | 35 | 354 | 1.6 | 1.6 | 0.00 | 0.00 | 0.00 | 53 | 1009.3 |
| 20260905194516 | 35 | 128 | 0.0 | 0.0 | 0.00 | 0.00 | 0.00 | 53 | 1009.6 |
| 20260905194015 | 35 | 222 | 3.2 | 3.2 | 0.00 | 0.00 | 0.00 | 55 | 1009.6 |
| 20260905193510 | 34 | 210 | 0.0 | 0.0 | 0.00 | 0.00 | 0.00 | 56 | 1009.6 |
| 20260905193005 | 35 | 330 | 6.4 | 6.4 | 0.00 | 0.00 | 0.00 | 57 | 1009.9 |
| 20260905192500 | 34 | 30 | 4.8 | 4.8 | 0.00 | 0.00 | 0.00 | 57 | 1009.9 |
| 20260905191957 | 34 | 306 | 8.0 | 8.0 | 0.00 | 0.00 | 0.00 | 56 | 1009.9 |
| 20260905191455 | 35 | 336 | 3.2 | 3.2 | 0.00 | 0.00 | 0.00 | 55 | 1009.9 |
| 20260905190954 | 35 | 60 | 3.2 | 3.2 | 0.00 | 0.00 | 0.00 | 56 | 1009.9 |
| 20260905190453 | 35 | 84 | 3.2 | 3.2 | 0.00 | 0.00 | 0.00 | 56 | 1009.9 |
| 20260905185951 | 35 | 48 | 3.2 | 3.2 | 0.00 | 0.00 | 0.00 | 58 | 1010.6 |
| 20260905185447 | 34 | 276 | 3.2 | 3.2 | 0.00 | 0.00 | 0.00 | 59 | 1010.6 |
| 20260905184945 | 34 | 354 | 4.8 | 4.8 | 0.00 | 0.00 | 0.00 | 60 | 1010.6 |
| 20260905184440 | 34 | 324 | 3.2 | 3.2 | 0.00 | 0.00 | 0.00 | 59 | 1010.6 |
| 20260905183939 | 33 | 330 | 3.2 | 3.2 | 0.00 | 0.00 | 0.00 | 59 | 1010.6 |
| 20260905183433 | 33 | 6 | 8.0 | 8.0 | 0.00 | 0.00 | 0.00 | 59 | 1010.6 |
| 20260905182929 | 34 | 64 | 3.2 | 3.2 | 0.00 | 0.00 | 0.00 | 59 | 1010.6 |
| 20260905182428 | 34 | 228 | 4.8 | 4.8 | 0.00 | 0.00 | 0.00 | 59 | 1010.6 |
| 20260905181924 | 34 | 12 | 3.2 | 3.2 | 0.00 | 0.00 | 0.00 | 60 | 1010.6 |
| 20260905181418 | 34 | 66 | 6.4 | 8.0 | 0.00 | 0.00 | 0.00 | 60 | 1010.9 |
| 20260905180917 | 34 | 234 | 3.2 | 3.2 | 0.00 | 0.00 | 0.00 | 61 | 1010.9 |
| 20260905180412 | 33 | 288 | 3.2 | 3.2 | 0.00 | 0.00 | 0.00 | 61 | 1010.9 |
| 20260905175907 | 34 | 216 | 4.8 | 4.8 | 0.00 | 0.00 | 0.00 | 61 | 1011.3 |
| 20260905175406 | 34 | 270 | 3.2 | 3.2 | 0.00 | 0.00 | 0.00 | 62 | 1011.3 |
| 20260905174901 | 33 | 18 | 3.2 | 3.2 | 0.00 | 0.00 | 0.00 | 63 | 1011.3 |
| 20260905174357 | 33 | 36 | 3.2 | 3.2 | 0.00 | 0.00 | 0.00 | 64 | 1011.6 |
| 20260905173853 | 33 | 6 | 4.8 | 4.8 | 0.00 | 0.00 | 0.00 | 64 | 1011.6 |
| 20260905173349 | 33 | 12 | 8.0 | 8.0 | 0.00 | 0.00 | 0.00 | 64 | 1011.6 |
| 20260905172844 | 32 | 135 | 4.8 | 4.8 | 0.00 | 0.00 | 0.00 | 64 | 1011.3 |
| 20260905172341 | 32 | 156 | 6.4 | 6.4 | 0.00 | 0.00 | 0.00 | 66 | 1011.3 |
| 20260905171838 | 32 | 347 | 6.4 | 6.4 | 0.00 | 0.00 | 0.00 | 64 | 1011.3 |
| 20260905171334 | 33 | 222 | 8.0 | 8.0 | 0.00 | 0.00 | 0.00 | 64 | 1011.6 |
| 20260905170830 | 33 | 30 | 9.7 | 9.7 | 0.00 | 0.00 | 0.00 | 64 | 1011.6 |
| 20260905170326 | 33 | 75 | 0.0 | 0.0 | 0.00 | 0.00 | 0.00 | 64 | 1011.6 |
| 20260905165825 | 32 | 72 | 0.0 | 0.0 | 0.00 | 0.00 | 0.00 | 65 | 1012.0 |
| 20260905165321 | 32 | 91 | 4.8 | 4.8 | 0.00 | 0.00 | 0.00 | 66 | 1012.0 |
| 20260905164821 | 33 | 24 | 1.6 | 1.6 | 0.00 | 0.00 | 0.00 | 66 | 1012.0 |
| 20260905164316 | 33 | 6 | 3.2 | 3.2 | 0.00 | 0.00 | 0.00 | 67 | 1012.3 |
| 20260905163811 | 33 | 48 | 4.8 | 4.8 | 0.00 | 0.00 | 0.00 | 68 | 1012.3 |
| 20260905163307 | 33 | 18 | 6.4 | 6.4 | 0.00 | 0.00 | 0.00 | 68 | 1012.3 |
| 20260905162803 | 32 | 252 | 3.2 | 3.2 | 0.00 | 0.00 | 0.00 | 69 | 1012.3 |
| 20260905162257 | 31 | 186 | 4.8 | 4.8 | 0.00 | 0.00 | 0.00 | 70 | 1012.3 |
| 20260905161752 | 31 | 271 | 6.4 | 6.4 | 0.00 | 0.00 | 0.00 | 71 | 1012.3 |
| 20260905161250 | 31 | 172 | 0.0 | 0.0 | 0.00 | 0.00 | 0.00 | 73 | 1013.0 |
| 20260905160749 | 31 | 6 | 8.0 | 8.0 | 0.00 | 0.00 | 0.00 | 73 | 1013.0 |
| 20260905160243 | 32 | 228 | 3.2 | 3.2 | 0.00 | 0.00 | 0.00 | 72 | 1013.0 |
| 20260905155738 | 31 | 348 | 0.0 | 0.0 | 0.00 | 0.00 | 0.00 | 72 | 1013.3 |
| 20260905155237 | 31 | 60 | 3.2 | 3.2 | 0.00 | 0.00 | 0.00 | 74 | 1013.3 |
| 20260905154731 | 32 | 324 | 6.4 | 6.4 | 0.00 | 0.00 | 0.00 | 74 | 1013.3 |
| 20260905154228 | 31 | 12 | 0.0 | 0.0 | 0.00 | 0.00 | 0.00 | 74 | 1013.3 |
| 20260905153723 | 31 | 347 | 9.7 | 9.7 | 0.00 | 0.00 | 0.00 | 75 | 1013.3 |
| 20260905153219 | 31 | 51 | 6.4 | 6.4 | 0.00 | 0.00 | 0.00 | 76 | 1013.3 |
| 20260905152713 | 32 | 1 | 8.0 | 9.7 | 0.00 | 0.00 | 0.00 | 74 | 1013.3 |
| 20260905152208 | 31 | 228 | 3.2 | 3.2 | 0.00 | 0.00 | 0.00 | 75 | 1013.3 |
| 20260905151707 | 31 | 179 | 0.0 | 0.0 | 0.00 | 0.00 | 0.00 | 77 | 1013.3 |
| 20260905151203 | 31 | 354 | 4.8 | 4.8 | 0.00 | 0.00 | 0.00 | 77 | 1013.0 |
| 20260905150658 | 31 | 270 | 3.2 | 3.2 | 0.00 | 0.00 | 0.00 | 78 | 1013.0 |
| 20260905150156 | 31 | 2 | 4.8 | 4.8 | 0.00 | 0.00 | 0.00 | 78 | 1013.0 |
| 20260905145654 | 31 | 12 | 3.2 | 3.2 | 0.00 | 0.00 | 0.00 | 79 | 1013.3 |
| 20260905145149 | 31 | 18 | 4.8 | 4.8 | 0.00 | 0.00 | 0.00 | 79 | 1013.3 |
| 20260905144643 | 30 | 210 | 6.4 | 6.4 | 0.00 | 0.00 | 0.00 | 79 | 1013.3 |
| 20260905144143 | 30 | 6 | 3.2 | 3.2 | 0.00 | 0.00 | 0.00 | 79 | 1013.3 |
| 20260905143637 | 31 | 342 | 3.2 | 3.2 | 0.00 | 0.00 | 0.00 | 79 | 1013.3 |
| 20260905143132 | 31 | 192 | 6.4 | 6.4 | 0.00 | 0.00 | 0.00 | 80 | 1013.3 |
| 20260905142631 | 31 | 108 | 4.8 | 4.8 | 0.00 | 0.00 | 0.00 | 80 | 1013.3 |
| 20260905142131 | 30 | 70 | 0.0 | 0.0 | 0.00 | 0.00 | 0.00 | 81 | 1013.3 |
| 20260905141630 | 30 | 234 | 3.2 | 3.2 | 0.00 | 0.00 | 0.00 | 82 | 1013.3 |
| 20260905141127 | 30 | 336 | 9.7 | 9.7 | 0.00 | 0.00 | 0.00 | 82 | 1013.3 |
| 20260905140622 | 30 | 24 | 6.4 | 6.4 | 0.00 | 0.00 | 0.00 | 82 | 1013.3 |
| 20260905140121 | 30 | 150 | 3.2 | 3.2 | 0.00 | 0.00 | 0.00 | 84 | 1013.3 |
| 20260905135616 | 30 | 127 | 3.2 | 3.2 | 0.00 | 0.00 | 0.00 | 85 | 1013.3 |
| 20260905135112 | 29 | 294 | 3.2 | 3.2 | 0.00 | 0.00 | 0.00 | 86 | 1013.3 |
| 20260905134607 | 28 | 12 | 4.8 | 4.8 | 0.00 | 0.00 | 0.00 | 88 | 1013.3 |
| 20260905134105 | 29 | 6 | 6.4 | 6.4 | 0.00 | 0.00 | 0.00 | 88 | 1013.3 |
| 20260905133601 | 28 | 65 | 3.2 | 3.2 | 0.00 | 0.00 | 0.00 | 90 | 1013.3 |
| 20260905133101 | 28 | 6 | 3.2 | 3.2 | 0.00 | 0.00 | 0.00 | 90 | 1013.7 |
| 20260905132600 | 28 | 72 | 0.0 | 0.0 | 0.00 | 0.00 | 0.00 | 91 | 1013.7 |
| 20260905132055 | 28 | 282 | 3.2 | 3.2 | 0.00 | 0.00 | 0.00 | 93 | 1013.7 |
| 20260905131551 | 27 | 7 | 4.8 | 4.8 | 0.00 | 0.00 | 0.00 | 95 | 1013.7 |
| 20260905131046 | 27 | 162 | 3.2 | 3.2 | 0.00 | 0.00 | 0.00 | 97 | 1013.7 |
| 20260905130544 | 27 | 48 | 3.2 | 3.2 | 0.00 | 0.00 | 0.00 | 98 | 1013.7 |
| 20260905130040 | 26 | 193 | 0.0 | 0.0 | 0.00 | 0.00 | 0.00 | 99 | 1013.7 |
| 20260905125539 | 26 | 59 | 0.0 | 0.0 | 0.00 | 0.00 | 0.00 | 99 | 1013.7 |
| 20260905125035 | 26 | 18 | 0.0 | 0.0 | 0.00 | 0.00 | 0.00 | 99 | 1013.7 |
| 20260905124532 | 26 | 192 | 1.6 | 1.6 | 0.00 | 0.00 | 0.00 | 99 | 1013.7 |
| 20260905124028 | 25 | 49 | 0.0 | 0.0 | 0.00 | 0.00 | 0.00 | 99 | 1013.7 |
| 20260905123523 | 25 | 204 | 0.0 | 0.0 | 0.00 | 0.00 | 0.00 | 99 | 1013.7 |
| 20260905123019 | 25 | 13 | 0.0 | 0.0 | 0.00 | 0.00 | 0.00 | 99 | 1013.7 |
| 20260905122513 | 25 | 342 | 0.0 | 0.0 | 0.00 | 0.00 | 0.00 | 99 | 1013.7 |
| 20260905122009 | 25 | 66 | 0.0 | 0.0 | 0.00 | 0.00 | 0.00 | 99 | 1013.7 |
| 20260905121508 | 25 | 41 | 0.0 | 0.0 | 0.00 | 0.00 | 0.00 | 99 | 1013.3 |
| 20260905121003 | 24 | 109 | 0.0 | 0.0 | 0.00 | 0.00 | 0.00 | 99 | 1013.3 |
| 20260905120503 | 24 | 46 | 0.0 | 0.0 | 0.00 | 0.00 | 0.00 | 99 | 1013.3 |
| 20260905115958 | 24 | 46 | 0.0 | 0.0 | 0.00 | 0.00 | 0.00 | 99 | 1013.3 |
| 20260905115457 | 23 | 46 | 0.0 | 0.0 | 0.00 | 0.00 | 0.00 | 99 | 1013.3 |
| 20260905114952 | 23 | 46 | 0.0 | 0.0 | 0.00 | 0.00 | 0.00 | 99 | 1013.3 |